sat.trackr.live / text

‹ back to catalog

TJS-19

NORAD 63924 · 2025-097A

PAYLOAD ACTIVE UNKNOWN

§ Identity

Operator
Country
PRC
Launch date
2025-05-12
Launch site
XICLF
Launch vehicle
Mass (kg)
RCS (m²)

Purposes: comms

External: N2YO · Heavens-Above · Gunter

§ Orbital elements

Epoch: 2026-05-24T16:26:17.988288Z

Period
1,436.04 min
Inclination
3.3253°
Eccentricity
0.0001566
Mean motion
1.00276028 rev/d
Perigee alt
35,778.8 km
Apogee alt
35,792.0 km
Semi-major
42,163.5 km
B*
0.0000e+0
RAAN
317.0851°
Arg perigee
256.3100°
Mean anomaly
56.7031°
Rev number
390

§ Raw data

TJS-191 63924U 25097A   26144.68493042 -.00000284  00000+0  00000+0 0  99932 63924   3.3253 317.0851 0001566 256.3100  56.7031  1.00276028  3902

JSON: /api/v1/satellites/63924 · /tle

For live sub-satellite position, see the globe view (requires WebGL).

§ Visibility from observer

Set your observer location to see the next 7 days of passes ≥ 10°. The values pass through the URL so the page stays shareable.

No JS? Fill the form by hand. The geolocation button needs JavaScript.